Location: Mason
(37.5237°N, 89.2543°W)
Time: 07:58:36
(UTC+00:00)

ERBS - Pass Details

Date: 24 January 2021
Orbit: 405 x 418 km, 57.0° (Epoch: 08 March)

Event Time Altitude Azimuth Distance (km) Brightness Sun altitude
Rises 12:15:49 0° 211° (SSW) 2,318 5.9 -10.2°
Reaches altitude 10° 12:17:54 10° 207° (SSW) 1,460 4.9 -9.8°
Maximum altitude 12:21:05 55° 128° (SE) 493 3.0 -9.2°
Drops below altitude 10° 12:24:17 10° 50° (NE) 1,465 5.5 -8.6°
Sets 12:26:23 0° 46° (NE) 2,328 6.4 -8.2°
